[[{"header":{"parameterUnit":"m.s-1","parameterCategory":1,"la1":30.2991,"la2":30.254,"lo1":-89.0895,"lo2":-89.0444,"dy":0.0017,"dx":0.0017,"nx":28,"ny":28,"refTime":"2023-04-17T15:00:00:Z","depth":0,"parameterNumber":2,"parameterNumberName":"U-component_of_WINDS"},"data":[0,0,0,0,0,0,0,0,0,0,0,0,0,0,0,0,0,0,0,0,0,0,0,0,0,0,0,0,0,0,0,0,0,0,0,0,0,0,0,0,0,0,0,0,0,0,0,0,0,0,0,0,0,0,0,0,0,0,-0.0666,-0.0667,0,-0.0714,-0.0715,-0.0715,-0.0752,-0.0753,-0.0753,-0.0754,-0.0802,-0.0803,-0.0803,0,0,0,0,0,0,0,0,0,0,0,0,0,-0.0605,-0.0606,-0.0666,-0.0667,-0.0667,-0.0714,-0.0715,-0.0715,-0.0752,-0.0753,-0.0753,-0.0754,-0.0801,-0.0802,-0.0804,0,0,0,0,0,0,0,0,0,0,0,0,0,-0.064,-0.0607,-0.0666,-0.0691,-0.0694,-0.0714,-0.0715,-0.0716,-0.0752,-0.0753,-0.0753,-0.0754,-0.0801,-0.0802,-0.0804,-0.0802,0,0,-0.0808,-0.0809,0,0,0,0,0,0,0,0,-0.0638,-0.0643,-0.0687,-0.069,-0.0693,-0.0728,-0.0711,-0.0744,-0.0752,-0.073,-0.0754,-0.0754,-0.0777,-0.078,-0.0788,-0.0804,-0.0806,-0.0808,-0.0809,-0.081,-0.081,0,0,0,0,0,0,0,-0.0636,-0.0641,-0.0685,-0.0688,-0.0691,-0.07,-0.0706,-0.0718,-0.075,-0.0732,-0.0735,-0.074,-0.0778,-0.0786,-0.0789,-0.0807,-0.0808,-0.0809,-0.081,-0.0811,-0.0823,-0.0823,0,0,0,0,0,0,-0.063,-0.0638,-0.0683,-0.0686,-0.0666,-0.0701,-0.0707,-0.0716,-0.075,-0.0755,-0.074,-0.0742,-0.0784,-0.0788,-0.0791,-0.079,-0.081,-0.0811,-0.0812,-0.0824,-0.0823,-0.0823,0,0,0,0,0,0,-0.0628,-0.0633,-0.0682,-0.0663,-0.067,-0.0701,-0.0711,-0.0717,-0.0725,-0.0755,-0.0761,-0.0742,-0.0784,-0.0789,-0.0799,-0.0793,-0.0812,-0.0813,-0.0824,-0.0824,-0.0823,-0.0789,0,0,0,0,0,0,-0.0626,-0.0633,-0.0632,-0.0663,-0.0671,-0.0689,-0.0711,-0.0717,-0.0727,-0.0731,-0.0759,-0.0765,-0.0785,-0.0796,-0.08,-0.0795,-0.0814,-0.0825,-0.0824,-0.0823,-0.0791,-0.0788,-0.0784,0,0,0,0,0,-0.0624,-0.0621,-0.0632,-0.0637,-0.0671,-0.0688,-0.0693,-0.0717,-0.0727,-0.0726,-0.0746,-0.0764,-0.0793,-0.0797,-0.0802,-0.0797,-0.0826,-0.0824,-0.0823,-0.0793,-0.0788,-0.0785,0,0,0,0,0,0,-0.0588,-0.0625,-0.0638,-0.0645,-0.0663,-0.0694,-0.0695,-0.0711,-0.0727,-0.0729,-0.0758,-0.0764,-0.0771,-0.0785,-0.0789,-0.0796,-0.0811,-0.0811,-0.0787,-0.0783,-0.0779,-0.0775,-0.0815,0,0,0,0,0,-0.0581,-0.0592,-0.0624,-0.0626,-0.0635,-0.0663,-0.0672,-0.0689,-0.0708,-0.0716,-0.0737,-0.0755,-0.0769,-0.0777,-0.0791,-0.0794,-0.08,-0.0793,-0.0789,-0.0786,-0.0785,-0.0788,-0.0784,-0.0819,-0.0819,-0.0819,0,0,-0.0566,-0.0588,-0.0593,-0.062,-0.0636,-0.0646,-0.0669,-0.0679,-0.0687,-0.0718,-0.0728,-0.0744,-0.0766,-0.0772,-0.0776,-0.0784,-0.0778,-0.0785,-0.0782,-0.0783,-0.0786,-0.0783,-0.078,-0.0818,-0.0818,-0.0818,0,0,-0.0544,-0.0562,-0.0566,-0.0582,-0.0606,-0.0625,-0.0626,-0.0655,-0.0667,-0.0678,-0.0701,-0.0711,-0.0733,-0.0748,-0.0759,-0.0743,-0.0759,-0.0747,-0.0729,-0.0731,-0.0728,-0.0726,-0.0719,-0.0717,-0.0746,-0.0746,-0.0746,0,-0.0522,-0.0539,-0.0566,-0.0575,-0.0585,-0.0614,-0.0618,-0.0632,-0.066,-0.0667,-0.0676,-0.0705,-0.0722,-0.0732,-0.0728,-0.0736,-0.0737,-0.0743,-0.0726,-0.0724,-0.0723,-0.0717,-0.0714,-0.0744,-0.0744,-0.0745,-0.0745,0,-0.0511,-0.0522,-0.0523,-0.0549,-0.056,-0.0566,-0.0594,-0.0602,-0.0618,-0.0636,-0.0646,-0.0668,-0.0687,-0.0691,-0.0707,-0.0703,-0.0707,-0.0721,-0.0736,-0.0717,-0.0712,-0.071,-0.0742,-0.0742,-0.0743,-0.0743,0,0,-0.0467,-0.0508,-0.0508,-0.052,-0.0549,-0.0558,-0.0566,-0.0585,-0.0591,-0.0609,-0.0616,-0.0634,-0.0647,-0.0659,-0.0677,-0.0679,-0.0664,-0.0692,-0.0693,-0.0686,-0.066,-0.0649,-0.0646,-0.0676,-0.0675,-0.0675,-0.0658,0,-0.0449,-0.0464,-0.0489,-0.0496,-0.0506,-0.0534,-0.0541,-0.0559,-0.0576,-0.0588,-0.0606,-0.0619,-0.0635,-0.0643,-0.0646,-0.0665,-0.0659,-0.0667,-0.0681,-0.0681,-0.0674,-0.0644,-0.0632,-0.0615,-0.0657,-0.0656,-0.0656,0,-0.043,-0.0447,-0.0455,-0.0484,-0.0489,-0.0494,-0.0514,-0.0524,-0.0546,-0.0558,-0.0571,-0.0591,-0.06,-0.0615,-0.0627,-0.0632,-0.0639,-0.065,-0.065,-0.0651,-0.0667,-0.0643,-0.061,-0.0607,-0.0653,-0.0654,-0.0654,0,-0.0395,-0.042,-0.0429,-0.0438,-0.0472,-0.0475,-0.0489,-0.0512,-0.0521,-0.0538,-0.0545,-0.0562,-0.0571,-0.0584,-0.0608,-0.0616,-0.0617,-0.0634,-0.0627,-0.0626,-0.0625,-0.0624,-0.0591,-0.0631,-0.0631,-0.0631,-0.0631,0,-0.0372,-0.0376,-0.0414,-0.0418,-0.0424,-0.0452,-0.0456,-0.0473,-0.0492,-0.05,-0.0526,-0.0533,-0.0564,-0.0575,-0.0593,-0.06,-0.0605,-0.0614,-0.0619,-0.0611,-0.061,-0.0616,-0.0617,-0.0631,-0.0631,-0.0631,-0.0631,0,-0.0334,-0.036,-0.037,-0.0402,-0.041,-0.0412,-0.0439,-0.0444,-0.0463,-0.0473,-0.0477,-0.0507,-0.0521,-0.0546,-0.0567,-0.0579,-0.0582,-0.0591,-0.0575,-0.0577,-0.0568,-0.0568,-0.0537,-0.0534,-0.0577,-0.0576,-0.0576,0,-0.0317,-0.0321,-0.0353,-0.036,-0.0374,-0.0386,-0.0396,-0.0424,-0.0433,-0.0458,-0.0461,-0.0477,-0.0491,-0.0512,-0.0535,-0.0551,-0.0559,-0.0547,-0.0562,-0.0554,-0.0558,-0.0557,-0.0557,-0.0544,-0.0543,-0.0543,-0.0542,0,-0.0284,-0.0296,-0.031,-0.0329,-0.034,-0.0356,-0.0373,-0.0378,-0.041,-0.0419,-0.0434,-0.0445,-0.0467,-0.0482,-0.0501,-0.0516,-0.0534,-0.0538,-0.0537,-0.0528,-0.0518,-0.0523,-0.0565,-0.0538,-0.0538,-0.0539,-0.0539,-0.0539,-0.0255,-0.0259,-0.0283,-0.0297,-0.0313,-0.0329,-0.0335,-0.0356,-0.0369,-0.0389,-0.0405,-0.0418,-0.0439,-0.0467,-0.0481,-0.0491,-0.05,-0.0498,-0.0498,-0.0497,-0.0493,-0.0518,-0.0495,-0.0495,-0.0495,-0.0495,-0.0495,0,-0.0222,-0.0239,-0.0252,-0.0275,-0.0287,-0.0304,-0.0324,-0.0332,-0.0344,-0.0363,-0.0376,-0.0393,-0.0408,-0.0432,-0.0449,-0.0453,-0.0462,-0.0456,-0.0456,-0.0459,-0.0485,-0.0484,-0.0449,-0.0449,-0.0449,-0.0449,-0.0449,-0.0449,-0.0206,-0.0214,-0.023,-0.0246,-0.0263,-0.0276,-0.0286,-0.03,-0.0316,-0.0333,-0.0346,-0.0362,-0.0383,-0.0402,-0.0416,-0.0423,-0.0427,-0.0419,-0.0428,-0.0453,-0.0457,-0.0461,-0.046,-0.042,-0.042,-0.0401,-0.0401,-0.04]},{"header":{"parameterUnit":"m.s-1","parameterCategory":1,"la1":30.2991,"la2":30.254,"lo1":-89.0895,"lo2":-89.0444,"dy":0.0017,"dx":0.0017,"nx":28,"ny":28,"refTime":"2023-04-17T15:00:00:Z","depth":0,"parameterNumber":3,"parameterNumberName":"V-component_of_WINDS"},"data":[0,0,0,0,0,0,0,0,0,0,0,0,0,0,0,0,0,0,0,0,0,0,0,0,0,0,0,0,0,0,0,0,0,0,0,0,0,0,0,0,0,0,0,0,0,0,0,0,0,0,0,0,0,0,0,0,0,0,-2.2956,-2.2957,0,-2.3062,-2.3064,-2.3065,-2.3069,-2.3068,-2.3067,-2.3066,-2.3172,-2.3176,-2.318,0,0,0,0,0,0,0,0,0,0,0,0,0,-2.2754,-2.2758,-2.2956,-2.2957,-2.2959,-2.3062,-2.3064,-2.3065,-2.307,-2.3068,-2.3066,-2.3065,-2.3171,-2.3175,-2.318,0,0,0,0,0,0,0,0,0,0,0,0,0,-2.2849,-2.2759,-2.2956,-2.2973,-2.2976,-2.3062,-2.3064,-2.3066,-2.307,-2.3068,-2.3066,-2.3064,-2.3169,-2.3175,-2.3181,-2.3255,0,0,-2.3199,-2.3202,0,0,0,0,0,0,0,0,-2.2844,-2.2857,-2.2969,-2.2972,-2.2975,-2.3051,-2.3031,-2.3129,-2.307,-2.3034,-2.3066,-2.3063,-2.3133,-2.3142,-2.3166,-2.326,-2.3265,-2.32,-2.3203,-2.3206,-2.3207,0,0,0,0,0,0,0,-2.2837,-2.2852,-2.2998,-2.2971,-2.2975,-2.2975,-2.2987,-2.305,-2.3093,-2.3037,-2.3038,-2.305,-2.3134,-2.316,-2.3168,-2.3266,-2.3199,-2.3205,-2.3208,-2.3211,-2.3428,-2.343,0,0,0,0,0,0,-2.2827,-2.2846,-2.2995,-2.3001,-2.2904,-2.298,-2.2993,-2.3028,-2.3092,-2.31,-2.3052,-2.305,-2.3151,-2.3161,-2.3172,-2.3264,-2.3206,-2.3211,-2.3215,-2.3425,-2.3428,-2.343,0,0,0,0,0,0,-2.2823,-2.2841,-2.299,-2.2924,-2.2943,-2.2986,-2.3025,-2.3031,-2.3057,-2.3103,-2.3111,-2.3071,-2.315,-2.3164,-2.3235,-2.3267,-2.3214,-2.3219,-2.3423,-2.3426,-2.3429,-2.3447,0,0,0,0,0,0,-2.2817,-2.2839,-2.2868,-2.2925,-2.2947,-2.3052,-2.3027,-2.3035,-2.3068,-2.3067,-2.3123,-2.313,-2.3149,-2.3226,-2.3241,-2.3275,-2.3224,-2.342,-2.3424,-2.3428,-2.3444,-2.3451,-2.3457,0,0,0,0,0,-2.281,-2.2869,-2.287,-2.2888,-2.2984,-2.3054,-2.3067,-2.3088,-2.3071,-2.31,-2.313,-2.3128,-2.3262,-2.3233,-2.325,-2.3286,-2.3418,-2.3423,-2.3428,-2.3441,-2.345,-2.3457,0,0,0,0,0,0,-2.2814,-2.2876,-2.2878,-2.2957,-2.3,-2.3055,-2.3093,-2.3096,-2.3144,-2.3141,-2.3165,-2.3177,-2.3248,-2.3274,-2.3242,-2.3362,-2.3338,-2.3346,-2.3342,-2.335,-2.3357,-2.3349,-2.3229,0,0,0,0,0,-2.2824,-2.2876,-2.2928,-2.2992,-2.3014,-2.305,-2.3081,-2.3094,-2.3139,-2.3157,-2.3192,-2.3235,-2.3286,-2.332,-2.337,-2.3448,-2.346,-2.3481,-2.3487,-2.3492,-2.3499,-2.3542,-2.3552,-2.3446,-2.3446,-2.3446,0,0,-2.2845,-2.2886,-2.2917,-2.2994,-2.3029,-2.3082,-2.3065,-2.3121,-2.316,-2.3165,-2.3235,-2.3262,-2.3312,-2.3387,-2.3421,-2.3411,-2.3531,-2.3499,-2.3502,-2.3507,-2.3548,-2.3558,-2.3567,-2.345,-2.3449,-2.3449,0,0,-2.2911,-2.2947,-2.3005,-2.3041,-2.3095,-2.3118,-2.3132,-2.3186,-2.3204,-2.3275,-2.328,-2.3326,-2.3414,-2.345,-2.3479,-2.3559,-2.3559,-2.3574,-2.3607,-2.3649,-2.3657,-2.3665,-2.3693,-2.3703,-2.3581,-2.3581,-2.3581,0,-2.2931,-2.3011,-2.3034,-2.3091,-2.3124,-2.3132,-2.3191,-2.3224,-2.3291,-2.3313,-2.33,-2.3412,-2.3446,-2.3529,-2.3549,-2.3572,-2.3588,-2.3568,-2.3654,-2.3662,-2.3669,-2.3696,-2.3707,-2.3583,-2.3583,-2.3582,-2.3582,0,-2.3032,-2.3088,-2.3128,-2.3194,-2.3232,-2.3289,-2.332,-2.3355,-2.3365,-2.3389,-2.3461,-2.3502,-2.3561,-2.3581,-2.3591,-2.3666,-2.3658,-2.365,-2.3626,-2.3681,-2.3706,-2.3717,-2.3585,-2.3584,-2.3584,-2.3584,0,0,-2.3103,-2.3181,-2.3195,-2.3225,-2.3285,-2.3328,-2.3386,-2.3444,-2.3474,-2.352,-2.3568,-2.3643,-2.3636,-2.3669,-2.3683,-2.3719,-2.3779,-2.3706,-2.3708,-2.3718,-2.3864,-2.387,-2.3882,-2.378,-2.3782,-2.3784,-2.386,0,-2.3175,-2.3278,-2.3301,-2.3389,-2.3441,-2.3449,-2.3499,-2.3541,-2.3566,-2.3612,-2.3639,-2.3692,-2.3678,-2.3698,-2.3735,-2.3764,-2.3809,-2.3759,-2.3825,-2.3827,-2.3812,-2.3895,-2.3902,-2.3971,-2.387,-2.3872,-2.3873,0,-2.3273,-2.3322,-2.3416,-2.347,-2.3492,-2.3537,-2.3592,-2.3637,-2.3684,-2.3699,-2.3737,-2.3747,-2.3806,-2.378,-2.3861,-2.3827,-2.3855,-2.3873,-2.3877,-2.3883,-2.3853,-2.3904,-2.3994,-2.4005,-2.3889,-2.3888,-2.3887,0,-2.3315,-2.3405,-2.3473,-2.3498,-2.3562,-2.3593,-2.3621,-2.3667,-2.37,-2.3748,-2.377,-2.3824,-2.3853,-2.3894,-2.3918,-2.3897,-2.3998,-2.3973,-2.4011,-2.4011,-2.4032,-2.403,-2.4128,-2.405,-2.405,-2.405,-2.405,0,-2.3393,-2.345,-2.3492,-2.3534,-2.3598,-2.3623,-2.3686,-2.3713,-2.3754,-2.3801,-2.3811,-2.3854,-2.3883,-2.3931,-2.3949,-2.4014,-2.4027,-2.404,-2.4044,-2.4039,-2.4037,-2.4058,-2.4053,-2.4053,-2.4052,-2.4052,-2.4051,0,-2.345,-2.3481,-2.3556,-2.3611,-2.3626,-2.367,-2.3717,-2.3757,-2.3782,-2.3841,-2.3856,-2.3895,-2.3951,-2.3979,-2.4049,-2.4061,-2.4134,-2.4135,-2.4118,-2.412,-2.4156,-2.4152,-2.427,-2.4286,-2.4198,-2.4199,-2.42,0,-2.3498,-2.3542,-2.3602,-2.3635,-2.3664,-2.3716,-2.375,-2.3777,-2.3812,-2.387,-2.3903,-2.396,-2.4007,-2.4096,-2.413,-2.4183,-2.4185,-2.4223,-2.4193,-2.4187,-2.4185,-2.4182,-2.4187,-2.4228,-2.4229,-2.4229,-2.423,0,-2.3579,-2.3592,-2.3642,-2.3698,-2.3739,-2.3784,-2.3828,-2.3854,-2.3887,-2.3926,-2.3985,-2.4021,-2.4093,-2.4149,-2.4205,-2.4232,-2.4237,-2.4239,-2.4251,-2.4245,-2.4234,-2.424,-2.4132,-2.4236,-2.4236,-2.4235,-2.4235,-2.4234,-2.3633,-2.3673,-2.3721,-2.3777,-2.3813,-2.3854,-2.3895,-2.3925,-2.3975,-2.4036,-2.4048,-2.4109,-2.4155,-2.4231,-2.426,-2.4308,-2.43,-2.4316,-2.4321,-2.4324,-2.4326,-2.4227,-2.4318,-2.4318,-2.4318,-2.4318,-2.4318,0,-2.3714,-2.3746,-2.3797,-2.3859,-2.3902,-2.3904,-2.3953,-2.3989,-2.4043,-2.4086,-2.4133,-2.4199,-2.4254,-2.4292,-2.4347,-2.4378,-2.4381,-2.4392,-2.4389,-2.4396,-2.433,-2.4315,-2.4388,-2.4388,-2.4388,-2.4388,-2.4388,-2.4388,-2.3762,-2.3829,-2.3848,-2.3933,-2.3965,-2.4026,-2.4054,-2.4091,-2.4126,-2.42,-2.4246,-2.4271,-2.4312,-2.437,-2.442,-2.443,-2.445,-2.446,-2.4469,-2.4408,-2.44,-2.4393,-2.4379,-2.4464,-2.4464,-2.4531,-2.4531,-2.4532]}]]